FW0192 Weather Reports


Display with metric or nautical units.
time (UTC)temp
F
wind
direction
speed
MPH
gust
MPH
rain 1hr
in
rain 24hr
in
rain mn
in
humidity
%
barometer
mb
20190116094704 31 272 3.0 4.0 0.00 0.00 0.00 70 1015.0
20190116094204 31 279 3.0 6.0 0.00 0.00 0.00 70 1015.2
20190116093704 32 279 3.0 6.0 0.00 0.00 0.00 69 1015.2
20190116093204 32 279 4.0 6.0 0.00 0.00 0.00 69 1015.3
20190116092703 32 279 4.0 6.0 0.00 0.00 0.00 69 1015.3
20190116092204 32 281 3.0 6.0 0.00 0.00 0.00 69 1015.3
20190116091704 32 281 4.0 6.0 0.00 0.00 0.00 69 1015.2
20190116091204 32 281 4.0 6.0 0.00 0.00 0.00 69 1015.2
20190116090703 32 281 3.0 4.0 0.00 0.00 0.00 69 1015.2
20190116090203 32 281 2.0 4.0 0.00 0.00 0.00 70 1015.2
20190116085705 32 280 3.0 4.0 0.00 0.00 0.00 70 1015.3
20190116085204 31 280 3.0 4.0 0.00 0.00 0.00 69 1015.5
20190116084704 31 267 2.0 4.0 0.00 0.00 0.00 71 1015.5
20190116084204 31 224 0.0 2.0 0.00 0.00 0.00 70 1015.5
20190116083704 31 267 0.0 6.0 0.00 0.00 0.00 70 1015.6
20190116083205 31 265 2.0 6.0 0.00 0.00 0.00 70 1015.6
20190116082704 31 265 3.0 6.0 0.00 0.00 0.00 70 1015.9
20190116082204 31 272 4.0 6.0 0.00 0.00 0.00 69 1015.7
20190116081704 31 285 3.0 6.0 0.00 0.00 0.00 70 1015.7
20190116081204 32 294 3.0 6.0 0.00 0.00 0.00 69 1015.7
20190116080703 32 293 3.0 6.0 0.00 0.00 0.00 68 1015.7
20190116080204 33 284 3.0 7.0 0.00 0.00 0.00 65 1015.9
20190116075704 33 277 4.0 7.0 0.00 0.00 0.00 63 1015.9
20190116075204 34 276 4.0 7.0 0.00 0.00 0.00 60 1015.9
20190116074703 35 277 4.0 8.0 0.00 0.00 0.00 58 1016.0
20190116074203 35 215 5.0 9.0 0.00 0.00 0.00 57 1015.9
20190116073703 35 202 6.0 9.0 0.00 0.00 0.00 57 1016.0
20190116073203 34 189 6.0 9.0 0.00 0.00 0.00 57 1016.1
20190116072703 33 191 6.0 7.0 0.00 0.00 0.00 59 1016.1
20190116072204 32 182 4.0 6.0 0.00 0.00 0.00 61 1016.3
20190116071705 31 169 2.0 5.0 0.00 0.00 0.00 63 1016.2
20190116071205 31 155 1.0 0.0 0.00 0.00 0.00 64 1016.4
20190116070704 30 154 0.0 0.0 0.00 0.00 0.00 64 1016.6
20190116070204 30 157 0.0 0.0 0.00 0.00 0.00 65 1016.8
20190116065704 30 165 0.0 0.0 0.00 0.00 0.00 66 1016.9
20190116065204 30 172 0.0 3.0 0.00 0.00 0.00 66 1016.9
20190116064703 30 173 1.0 5.0 0.00 0.00 0.00 63 1017.0
20190116064203 30 173 2.0 6.0 0.00 0.00 0.00 64 1017.1
20190116063704 30 173 4.0 6.0 0.00 0.00 0.00 63 1017.3
20190116063204 30 173 4.0 6.0 0.00 0.00 0.00 63 1017.4
20190116062704 30 165 1.0 5.0 0.00 0.00 0.00 63 1017.5
20190116062204 30 172 0.0 0.0 0.00 0.00 0.00 61 1017.7
20190116061704 31 171 0.0 0.0 0.00 0.00 0.00 59 1017.7
20190116061204 31 171 0.0 0.0 0.00 0.00 0.00 57 1017.8
20190116060704 32 171 0.0 0.0 0.00 0.00 0.00 56 1018.0
20190116060203 32 171 0.0 0.0 0.00 0.00 0.00 56 1018.1
20190116055703 32 202 0.0 0.0 0.00 0.00 0.00 56 1018.1
20190116055204 33 202 0.0 3.0 0.00 0.00 0.00 57 1018.2
20190116054703 33 202 1.0 5.0 0.00 0.00 0.00 55 1018.2
20190116054204 33 202 2.0 5.0 0.00 0.00 0.00 54 1018.2
20190116053704 33 202 4.0 5.0 0.00 0.00 0.00 55 1018.2
20190116053204 33 203 4.0 5.0 0.00 0.00 0.00 55 1018.2
20190116052704 33 205 4.0 5.0 0.00 0.00 0.00 55 1018.3
20190116052204 34 205 4.0 5.0 0.00 0.00 0.00 54 1018.2
20190116051704 34 206 4.0 5.0 0.00 0.00 0.00 54 1018.2
20190116051204 34 208 4.0 5.0 0.00 0.00 0.00 53 1018.1
20190116050704 34 202 4.0 6.0 0.00 0.00 0.00 52 1018.1
20190116050204 34 195 4.0 6.0 0.00 0.00 0.00 53 1018.1
20190116045704 33 194 4.0 6.0 0.00 0.00 0.00 55 1018.1
20190116045204 33 198 4.0 5.0 0.00 0.00 0.00 56 1018.1
20190116044704 33 202 3.0 4.0 0.00 0.00 0.00 55 1018.1
20190116044204 33 195 3.0 4.0 0.00 0.00 0.00 53 1018.1
20190116043704 33 186 3.0 4.0 0.00 0.00 0.00 51 1018.1
20190116043204 34 192 3.0 5.0 0.00 0.00 0.00 49 1018.1
20190116042704 35 192 4.0 7.0 0.00 0.00 0.00 47 1018.0
20190116042204 35 192 5.0 8.0 0.00 0.00 0.00 46 1018.0
20190116041705 36 186 6.0 9.0 0.00 0.00 0.00 44 1018.1
20190116041204 36 184 7.0 10.0 0.00 0.00 0.00 43 1018.1
20190116040704 37 178 7.0 10.0 0.00 0.00 0.00 42 1018.1
20190116040204 37 180 8.0 10.0 0.00 0.00 0.00 42 1018.2
20190116035704 37 180 8.0 10.0 0.00 0.00 0.00 41 1018.2
20190116035203 37 179 7.0 11.0 0.00 0.00 0.00 42 1018.2
20190116034704 37 184 7.0 11.0 0.00 0.00 0.00 43 1018.2
20190116034205 37 194 7.0 11.0 0.00 0.00 0.00 43 1018.3
20190116033704 36 179 7.0 9.0 0.00 0.00 0.00 44 1018.4
20190116033204 36 182 6.0 9.0 0.00 0.00 0.00 45 1018.4
20190116032704 36 177 6.0 10.0 0.00 0.00 0.00 45 1018.5
20190116032204 36 169 6.0 10.0 0.00 0.00 0.00 45 1018.5
20190116031704 36 167 7.0 13.0 0.00 0.00 0.00 45 1018.4
20190116031203 37 170 8.0 13.0 0.00 0.00 0.00 43 1018.4
20190116030704 38 171 8.0 13.0 0.00 0.00 0.00 42 1018.4
20190116030204 38 174 8.0 13.0 0.00 0.00 0.00 40 1018.4
20190116025705 38 171 8.0 11.0 0.00 0.00 0.00 41 1018.5
20190116025204 37 174 7.0 10.0 0.00 0.00 0.00 43 1018.5
20190116024704 36 181 6.0 10.0 0.00 0.00 0.00 45 1018.7
20190116024205 36 171 6.0 9.0 0.00 0.00 0.00 45 1018.5
20190116023704 36 185 6.0 9.0 0.00 0.00 0.00 46 1018.7
20190116023204 36 175 7.0 9.0 0.00 0.00 0.00 46 1018.7
20190116022704 36 177 7.0 9.0 0.00 0.00 0.00 48 1018.7
20190116022204 36 173 6.0 9.0 0.00 0.00 0.00 48 1018.7
20190116021704 35 167 6.0 7.0 0.00 0.00 0.00 48 1018.7
20190116021203 35 166 6.0 7.0 0.00 0.00 0.00 50 1018.7
20190116020703 34 169 6.0 7.0 0.00 0.00 0.00 53 1018.8
20190116020203 33 173 5.0 6.0 0.00 0.00 0.00 58 1018.7
20190116015703 33 167 3.0 5.0 0.00 0.00 0.00 60 1018.8
20190116015203 33 163 3.0 6.0 0.00 0.00 0.00 61 1018.8
20190116014704 33 163 4.0 6.0 0.00 0.00 0.00 60 1018.7
20190116014203 33 163 5.0 6.0 0.00 0.00 0.00 59 1018.8
20190116013703 34 163 5.0 6.0 0.00 0.00 0.00 57 1018.8
20190116013203 35 163 5.0 6.0 0.00 0.00 0.00 57 1018.8
20190116012703 35 159 5.0 6.0 0.00 0.00 0.00 56 1018.8
20190116012204 34 159 4.0 6.0 0.00 0.00 0.00 57 1018.7
20190116011704 34 160 1.0 4.0 0.00 0.00 0.00 56 1018.7
20190116011204 35 161 0.0 0.0 0.00 0.00 0.00 55 1018.8
20190116010704 35 161 0.0 0.0 0.00 0.00 0.00 53 1018.8
20190116010204 36 161 0.0 0.0 0.00 0.00 0.00 52 1018.8
20190116005704 36 161 0.0 4.0 0.00 0.00 0.00 51 1018.8
20190116005204 37 161 1.0 5.0 0.00 0.00 0.00 51 1018.8
20190116004704 37 161 2.0 5.0 0.00 0.00 0.00 52 1018.7
20190116004204 37 161 4.0 5.0 0.00 0.00 0.00 50 1018.8
20190116003704 38 161 3.0 5.0 0.00 0.00 0.00 49 1018.8
20190116003205 38 155 3.0 4.0 0.00 0.00 0.00 49 1018.8
20190116002704 38 149 3.0 4.0 0.00 0.00 0.00 48 1018.8
20190116002204 38 149 1.0 4.0 0.00 0.00 0.00 46 1018.8
20190116001704 40 148 1.0 4.0 0.00 0.00 0.00 43 1018.8
20190116001205 41 148 3.0 4.0 0.00 0.00 0.00 43 1018.7
20190116000704 41 148 4.0 4.0 0.00 0.00 0.00 42 1018.8
20190116000204 41 148 4.0 4.0 0.00 0.00 0.00 40 1018.5
20190115235704 42 148 3.0 4.0 0.00 0.00 0.00 38 1018.7
20190115235204 42 148 3.0 3.0 0.00 0.00 0.00 37 1018.7
20190115234704 42 148 1.0 3.0 0.00 0.00 0.00 36 1018.7
20190115234205 43 148 0.0 3.0 0.00 0.00 0.00 36 1018.7
20190115233705 43 148 1.0 3.0 0.00 0.00 0.00 35 1018.7
20190115233204 44 148 2.0 3.0 0.00 0.00 0.00 36 1018.7
20190115232704 44 148 2.0 3.0 0.00 0.00 0.00 35 1018.5
20190115232204 44 148 2.0 4.0 0.00 0.00 0.00 35 1018.7
20190115231703 44 148 3.0 4.0 0.00 0.00 0.00 35 1018.7
20190115231204 45 148 3.0 4.0 0.00 0.00 0.00 35 1018.5
20190115230704 46 137 3.0 7.0 0.00 0.00 0.00 32 1018.5
20190115230203 47 136 3.0 8.0 0.00 0.00 0.00 31 1018.4
20190115225703 48 138 5.0 8.0 0.00 0.00 0.00 30 1018.4
20190115225204 49 141 6.0 8.0 0.00 0.00 0.00 28 1018.3
20190115224703 49 154 6.0 8.0 0.00 0.00 0.00 27 1018.3
20190115224203 50 148 6.0 9.0 0.00 0.00 0.00 29 1018.3
20190115223704 50 136 6.0 10.0 0.00 0.00 0.00 27 1018.2
20190115223203 50 123 7.0 10.0 0.00 0.00 0.00 29 1018.1
20190115222704 50 140 7.0 10.0 0.00 0.00 0.00 29 1018.1
20190115222204 51 144 6.0 10.0 0.00 0.00 0.00 28 1018.2
20190115221704 51 152 5.0 10.0 0.00 0.00 0.00 30 1018.2
20190115221204 51 148 4.0 9.0 0.00 0.00 0.00 29 1018.1
20190115220704 51 154 4.0 9.0 0.00 0.00 0.00 27 1018.1
20190115220204 51 98 4.0 9.0 0.00 0.00 0.00 29 1018.2
20190115215704 51 144 4.0 9.0 0.00 0.00 0.00 31 1018.2
20190115215204 51 144 4.0 8.0 0.00 0.00 0.00 30 1018.1
20190115214704 51 159 5.0 8.0 0.00 0.00 0.00 30 1018.1
20190115214204 51 148 4.0 10.0 0.00 0.00 0.00 29 1018.1
20190115213704 51 145 4.0 10.0 0.00 0.00 0.00 30 1018.2
20190115213204 51 144 6.0 10.0 0.00 0.00 0.00 28 1018.2
20190115212704 51 130 5.0 10.0 0.00 0.00 0.00 28 1018.3
20190115212204 51 163 4.0 10.0 0.00 0.00 0.00 27 1018.3
20190115211703 51 169 4.0 10.0 0.00 0.00 0.00 28 1018.3
20190115211204 51 160 3.0 6.0 0.00 0.00 0.00 27 1018.3
20190115210703 51 167 1.0 8.0 0.00 0.00 0.00 27 1018.2
20190115210204 51 192 2.0 8.0 0.00 0.00 0.00 29 1018.2
20190115205704 50 200 4.0 8.0 0.00 0.00 0.00 30 1018.1
20190115205204 50 198 2.0 7.0 0.00 0.00 0.00 30 1018.1
20190115204704 50 145 1.0 5.0 0.00 0.00 0.00 28 1018.1
20190115204205 50 212 1.0 5.0 0.00 0.00 0.00 31 1018.1
20190115203703 50 211 2.0 5.0 0.00 0.00 0.00 31 1018.1
20190115203204 49 185 2.0 5.0 0.00 0.00 0.00 32 1018.1
20190115202704 49 216 1.0 4.0 0.00 0.00 0.00 31 1018.1
20190115202203 50 215 0.0 4.0 0.00 0.00 0.00 32 1018.1
20190115201703 49 209 1.0 4.0 0.00 0.00 0.00 33 1018.2
20190115201204 48 210 1.0 5.0 0.00 0.00 0.00 33 1018.2
20190115200703 48 223 2.0 5.0 0.00 0.00 0.00 33 1018.3
20190115200204 48 198 3.0 5.0 0.00 0.00 0.00 33 1018.3
20190115195703 48 196 2.0 5.0 0.00 0.00 0.00 34 1018.4
20190115195204 48 219 3.0 5.0 0.00 0.00 0.00 32 1018.4
20190115194704 48 229 2.0 4.0 0.00 0.00 0.00 32 1018.5
20190115194204 48 283 1.0 4.0 0.00 0.00 0.00 33 1018.5
20190115193704 47 229 2.0 4.0 0.00 0.00 0.00 31 1018.5
20190115193204 47 229 1.0 5.0 0.00 0.00 0.00 30 1018.5
20190115192704 47 221 1.0 5.0 0.00 0.00 0.00 31 1018.5
20190115192204 47 221 2.0 4.0 0.00 0.00 0.00 31 1018.7
20190115191704 46 175 1.0 5.0 0.00 0.00 0.00 30 1018.8
20190115191204 46 175 1.0 5.0 0.00 0.00 0.00 32 1018.9
20190115190704 46 175 1.0 4.0 0.00 0.00 0.00 30 1019.0
20190115190203 45 144 1.0 4.0 0.00 0.00 0.00 32 1019.1
20190115185704 45 144 1.0 2.0 0.00 0.00 0.00 33 1019.2
20190115185203 44 148 1.0 3.0 0.00 0.00 0.00 33 1019.4
20190115184704 44 202 0.0 3.0 0.00 0.00 0.00 35 1019.6
20190115184204 43 202 1.0 3.0 0.00 0.00 0.00 36 1019.7
20190115183704 42 215 1.0 4.0 0.00 0.00 0.00 41 1019.8
20190115183204 41 215 2.0 5.0 0.00 0.00 0.00 41 1019.8
20190115182704 41 215 2.0 5.0 0.00 0.00 0.00 41 1019.9
20190115182204 41 223 3.0 6.0 0.00 0.00 0.00 43 1020.2
20190115181704 40 223 4.0 6.0 0.00 0.00 0.00 44 1020.3
20190115181204 39 223 3.0 6.0 0.00 0.00 0.00 43 1020.3
20190115180703 39 185 2.0 4.0 0.00 0.00 0.00 41 1020.3
20190115180203 38 227 1.0 3.0 0.00 0.00 0.00 42 1020.5
20190115175703 38 302 1.0 5.0 0.00 0.00 0.00 43 1020.4
20190115175203 38 302 2.0 5.0 0.00 0.00 0.00 43 1020.4
20190115174704 38 302 3.0 6.0 0.00 0.00 0.00 44 1020.8
20190115174204 38 297 2.0 6.0 0.00 0.00 0.00 43 1020.8
20190115173704 38 293 2.0 6.0 0.00 0.00 0.00 45 1020.8
20190115173204 37 221 2.0 6.0 0.00 0.00 0.00 47 1020.8
20190115172704 37 257 3.0 7.0 0.00 0.00 0.00 47 1020.8
20190115172204 36 252 4.0 8.0 0.00 0.00 0.00 50 1020.9
20190115171704 35 228 4.0 8.0 0.00 0.00 0.00 50 1020.8
20190115171204 35 238 6.0 8.0 0.00 0.00 0.00 52 1020.9
20190115170704 34 216 5.0 8.0 0.00 0.00 0.00 55 1020.8
20190115170204 33 194 4.0 6.0 0.00 0.00 0.00 57 1020.8
20190115165704 32 206 3.0 4.0 0.00 0.00 0.00 56 1020.6
20190115165204 32 192 2.0 5.0 0.00 0.00 0.00 56 1020.6
20190115164704 32 211 2.0 11.0 0.00 0.00 0.00 57 1020.8
20190115164204 31 211 5.0 11.0 0.00 0.00 0.00 58 1020.8
20190115163703 31 227 7.0 11.0 0.00 0.00 0.00 60 1020.6
20190115163203 30 225 8.0 11.0 0.00 0.00 0.00 61 1020.6
20190115162704 29 213 8.0 11.0 0.00 0.00 0.00 61 1020.6
20190115162204 29 217 8.0 10.0 0.00 0.00 0.00 61 1020.5
20190115161704 29 208 7.0 10.0 0.00 0.00 0.00 62 1020.5
20190115161204 29 205 7.0 10.0 0.00 0.00 0.00 62 1020.5
20190115160704 28 209 7.0 10.0 0.00 0.00 0.00 62 1020.5
20190115160204 28 202 7.0 10.0 0.00 0.00 0.00 61 1020.4
20190115155704 28 211 8.0 10.0 0.00 0.00 0.00 62 1020.3
20190115155204 27 215 8.0 13.0 0.00 0.00 0.00 62 1020.2
20190115154704 27 223 8.0 13.0 0.00 0.00 0.00 62 1020.2
20190115154204 27 206 9.0 13.0 0.00 0.00 0.00 61 1020.2
20190115153704 27 204 9.0 12.0 0.00 0.00 0.00 61 1020.2
20190115153203 27 215 9.0 12.0 0.00 0.00 0.00 61 1020.1
20190115152703 27 202 9.0 12.0 0.00 0.00 0.00 62 1020.2
20190115152204 26 219 9.0 12.0 0.00 0.00 0.00 62 1020.1
20190115151704 26 213 8.0 10.0 0.00 0.00 0.00 63 1019.9
20190115151204 26 209 8.0 10.0 0.00 0.00 0.00 63 1019.8
20190115150705 25 203 8.0 11.0 0.00 0.00 0.00 63 1019.9
20190115150204 25 200 8.0 11.0 0.00 0.00 0.00 65 1019.8
20190115145704 24 205 8.0 10.0 0.00 0.00 0.00 65 1019.8
20190115145204 24 204 7.0 9.0 0.00 0.00 0.00 66 1019.8
20190115144703 23 209 7.0 9.0 0.00 0.00 0.00 66 1019.8
20190115144204 23 198 7.0 9.0 0.00 0.00 0.00 66 1019.9
20190115143704 23 211 7.0 10.0 0.00 0.00 0.00 67 1019.7
20190115143204 22 221 7.0 10.0 0.00 0.00 0.00 67 1019.8
20190115142704 22 217 8.0 10.0 0.00 0.00 0.00 67 1019.7
20190115142204 22 207 8.0 10.0 0.00 0.00 0.00 68 1019.7
20190115141703 22 205 7.0 10.0 0.00 0.00 0.00 68 1019.6
20190115141204 22 211 7.0 8.0 0.00 0.00 0.00 68 1019.5
20190115140704 22 221 6.0 8.0 0.00 0.00 0.00 68 1019.4
20190115140204 22 217 7.0 9.0 0.00 0.00 0.00 68 1019.2
20190115135705 21 223 7.0 9.0 0.00 0.00 0.00 68 1019.4
20190115135203 21 202 7.0 9.0 0.00 0.00 0.00 67 1019.4
20190115134704 21 217 7.0 9.0 0.00 0.00 0.00 67 1019.4
20190115134204 21 219 8.0 9.0 0.00 0.00 0.00 66 1019.5
20190115133704 21 224 8.0 10.0 0.00 0.00 0.00 66 1019.6
20190115133204 21 219 8.0 10.0 0.00 0.00 0.00 66 1019.7
20190115132705 21 230 8.0 10.0 0.00 0.00 0.00 66 1019.7
20190115132204 21 219 7.0 8.0 0.00 0.00 0.00 66 1019.6
20190115131704 21 220 6.0 7.0 0.00 0.00 0.00 67 1019.5
20190115131204 21 215 6.0 7.0 0.00 0.00 0.00 68 1019.5
20190115130704 21 211 5.0 6.0 0.00 0.00 0.00 67 1019.5
20190115130204 21 215 4.0 7.0 0.00 0.00 0.00 67 1019.5
20190115125704 21 207 5.0 7.0 0.00 0.00 0.00 66 1019.5
20190115125203 21 228 4.0 8.0 0.00 0.00 0.00 66 1019.5
20190115124704 22 288 5.0 8.0 0.00 0.00 0.00 66 1019.5
20190115124204 22 241 6.0 12.0 0.00 0.00 0.00 66 1019.5
20190115123704 22 217 7.0 13.0 0.00 0.00 0.00 66 1019.5
20190115123204 22 234 9.0 13.0 0.00 0.00 0.00 65 1019.4
20190115122705 22 215 9.0 12.0 0.00 0.00 0.00 66 1019.4
20190115122203 21 197 6.0 9.0 0.00 0.00 0.00 66 1019.5
20190115121703 22 205 5.0 9.0 0.00 0.00 0.00 65 1019.5
20190115121204 22 224 6.0 11.0 0.00 0.00 0.00 64 1019.5
20190115120704 22 223 7.0 13.0 0.00 0.00 0.00 63 1019.6
20190115120204 22 222 9.0 13.0 0.00 0.00 0.00 62 1019.6
20190115115704 23 219 10.0 13.0 0.00 0.00 0.00 62 1019.7
20190115115203 23 217 9.0 13.0 0.00 0.00 0.00 62 1019.8
20190115114704 23 212 9.0 11.0 0.00 0.00 0.00 62 1019.7
20190115114204 23 202 8.0 10.0 0.00 0.00 0.00 62 1019.7
20190115113704 23 207 7.0 9.0 0.00 0.00 0.00 63 1019.7
20190115113204 23 213 7.0 11.0 0.00 0.00 0.00 63 1019.7
20190115112704 23 210 8.0 11.0 0.00 0.00 0.00 63 1019.6
20190115112205 23 209 8.0 11.0 0.00 0.00 0.00 64 1019.6
20190115111703 22 210 8.0 10.0 0.00 0.00 0.00 64 1019.7
20190115111204 23 202 8.0 10.0 0.00 0.00 0.00 64 1019.6
20190115110704 23 211 8.0 10.0 0.00 0.00 0.00 64 1019.7
20190115110204 23 207 8.0 10.0 0.00 0.00 0.00 64 1019.7
20190115105704 23 207 8.0 10.0 0.00 0.00 0.00 64 1019.7
20190115105203 23 205 8.0 13.0 0.00 0.00 0.00 63 1019.7
20190115104704 23 214 8.0 13.0 0.00 0.00 0.00 63 1019.8
20190115104204 23 219 9.0 13.0 0.00 0.00 0.00 62 1019.8
20190115103704 24 209 9.0 13.0 0.00 0.00 0.00 61 1019.9
20190115103205 24 207 10.0 13.0 0.00 0.00 0.00 60 1019.9
20190115102703 24 209 11.0 13.0 0.00 0.00 0.00 60 1020.1
20190115102204 24 215 10.0 11.0 0.00 0.00 0.00 60 1020.1
20190115101704 24 211 8.0 10.0 0.00 0.00 0.00 60 1020.1
20190115101204 24 217 8.0 12.0 0.00 0.00 0.00 61 1020.1
20190115100704 24 213 8.0 12.0 0.00 0.00 0.00 61 1020.2
20190115100203 24 217 9.0 12.0 0.00 0.00 0.00 61 1020.2
20190115095704 24 213 9.0 11.0 0.00 0.00 0.00 60 1020.3
20190115095204 24 208 8.0 11.0 0.00 0.00 0.00 61 1020.4